TimeCDT,TemperatureF,Dew PointF,Humidity,Sea Level PressureIn,VisibilityMPH,Wind Direction,Wind SpeedMPH,Gust SpeedMPH,PrecipitationIn,Events,Conditions,WindDirDegrees,DateUTC
12:53 AM,51.1,48.0,89,30.07,10.0,Calm,Calm,-,N/A,,Clear,0,2013-04-02 05:53:00
1:53 AM,51.1,48.9,92,30.06,10.0,Calm,Calm,-,N/A,,Clear,0,2013-04-02 06:53:00
2:53 AM,50.0,46.9,89,30.06,10.0,Calm,Calm,-,N/A,,Clear,0,2013-04-02 07:53:00
3:53 AM,48.9,46.9,93,30.04,10.0,Calm,Calm,-,N/A,,Clear,0,2013-04-02 08:53:00
4:53 AM,50.0,46.9,89,30.05,10.0,Calm,Calm,-,N/A,,Clear,0,2013-04-02 09:53:00
5:53 AM,53.1,48.0,83,30.06,10.0,NNE,3.5,-,N/A,,Clear,30,2013-04-02 10:53:00
6:53 AM,53.1,46.9,80,30.09,10.0,Calm,Calm,-,N/A,,Clear,0,2013-04-02 11:53:00
7:53 AM,55.0,48.0,77,30.12,10.0,ENE,3.5,-,N/A,,Clear,60,2013-04-02 12:53:00
8:53 AM,57.9,48.9,72,30.12,10.0,East,3.5,-,N/A,,Clear,80,2013-04-02 13:53:00
9:53 AM,64.9,50.0,58,30.12,10.0,SE,4.6,-,N/A,,Clear,130,2013-04-02 14:53:00
10:53 AM,69.1,51.1,53,30.11,10.0,Variable,3.5,-,N/A,,Clear,0,2013-04-02 15:53:00
11:53 AM,72.0,50.0,46,30.09,10.0,SSE,6.9,-,N/A,,Clear,150,2013-04-02 16:53:00
12:53 PM,73.0,48.0,41,30.09,10.0,SSE,10.4,-,N/A,,Clear,150,2013-04-02 17:53:00
1:53 PM,75.0,51.1,43,30.06,10.0,SSE,9.2,-,N/A,,Clear,160,2013-04-02 18:53:00
2:53 PM,75.9,50.0,40,30.03,10.0,SSE,8.1,-,N/A,,Clear,160,2013-04-02 19:53:00
3:53 PM,75.9,50.0,40,30.00,10.0,Calm,Calm,-,N/A,,Clear,0,2013-04-02 20:53:00
4:53 PM,77.0,50.0,39,29.99,10.0,SSE,6.9,-,N/A,,Clear,160,2013-04-02 21:53:00
5:53 PM,75.9,52.0,43,29.98,10.0,SSE,6.9,-,N/A,,Clear,150,2013-04-02 22:53:00
6:53 PM,73.9,55.0,52,29.99,10.0,Calm,Calm,-,N/A,,Clear,0,2013-04-02 23:53:00
7:53 PM,68.0,57.9,70,30.00,10.0,SSE,3.5,-,N/A,,Scattered Clouds,150,2013-04-03 00:53:00
8:53 PM,66.9,55.0,66,30.01,10.0,SSE,4.6,-,N/A,,Partly Cloudy,160,2013-04-03 01:53:00
9:53 PM,66.9,55.0,66,30.00,10.0,Calm,Calm,-,N/A,,Clear,0,2013-04-03 02:53:00
10:53 PM,64.9,54.0,68,29.99,10.0,Calm,Calm,-,N/A,,Clear,0,2013-04-03 03:53:00
11:53 PM,64.0,55.0,73,29.99,10.0,East,3.5,-,N/A,,Mostly Cloudy,100,2013-04-03 04:53:00